Wind_Speed
15 15 15 14 13 12 12 11 11 11 10 10 10 9 9 9 8 7 5 5 4 3 3 2 1 0 2 2 3 3 4 4 4 5 6 6 6 7 7 8 9 9 9
14 15 14 14 13 13 12 12 11 11 11 10 10 9 9 8 8 7 5 4 4 4 4 3 2 1 1 2 3 3 4 5 5 6 6 7 7 7 8 9 9 10 11
13 14 14 13 13 13 12 11 11 11 11 11 10 10 10 9 8 7 7 6 5 4 4 3 3 2 2 3 4 4 5 5 6 6 7 8 8 9 9 9 10 10 10
12 13 13 13 13 13 12 12 12 11 11 10 10 10 10 10 9 8 8 7 6 6 4 4 4 4 4 4 4 5 6 6 7 7 8 9 10 10 11 11 11 11 12
11 12 12 12 12 12 12 12 12 11 11 11 11 10 10 10 9 9 9 9 8 7 6 6 6 5 5 5 5 6 7 7 8 8 9 10 10 11 11 12 13 13 13
10 10 11 11 11 12 12 12 11 11 11 12 11 11 11 10 10 10 9 9 9 9 8 7 7 6 6 6 6 7 8 8 9 9 10 10 11 11 12 13 14 14 15
9 10 10 10 10 10 11 11 11 11 11 11 11 11 11 11 10 10 11 10 10 10 9 8 8 7 7 7 7 8 8 9 10 10 10 11 11 12 12 13 13 14 15
9 10 9 9 9 9 9 10 10 11 10 10 10 11 11 11 11 11 12 12 12 11 11 9 9 9 9 9 9 9 9 10 10 11 11 12 12 13 13 13 13 14 14
9 10 9 8 8 8 8 9 9 10 10 10 9 10 11 11 11 11 12 13 13 13 11 11 11 10 11 11 11 11 11 11 11 12 12 12 13 13 13 14 14 14 15
9 10 9 8 8 8 8 8 8 9 9 10 9 10 11 12 12 12 12 13 14 14 13 13 12 12 13 12 12 11 12 12 12 12 13 13 14 14 14 15 15 15 16
10 9 9 8 8 8 8 8 7 8 8 9 10 10 11 12 12 13 13 13 14 15 14 14 14 14 14 13 13 13 13 13 13 13 14 14 14 15 15 16 17 17 17
9 9 9 9 8 8 8 8 7 8 8 9 10 10 12 13 13 13 14 14 14 15 15 15 15 15 14 13 14 14 14 14 14 15 15 15 15 15 16 17 18 18 18
10 10 10 10 9 9 8 8 8 8 9 10 10 10 11 13 14 15 16 16 16 15 16 16 16 15 14 14 14 14 15 15 15 15 15 16 16 16 17 17 18 18 18
12 11 11 10 10 10 10 9 9 10 10 11 11 12 12 13 15 16 16 17 17 17 17 17 17 16 15 15 15 15 15 15 16 16 16 16 17 17 18 18 18 18 19
13 12 12 12 12 11 11 11 11 12 12 12 12 13 13 14 15 16 17 17 18 17 17 18 18 17 16 16 16 15 16 16 16 16 17 17 17 18 18 19 19 20 20
16 15 15 15 14 14 14 13 14 14 14 14 15 15 15 15 16 17 18 18 19 19 19 19 19 19 18 17 17 17 17 17 17 17 17 17 17 18 20 20 21 21 22
18 18 17 18 17 17 16 16 16 16 16 16 17 17 17 17 18 18 19 20 20 20 21 20 20 20 20 19 19 19 19 19 18 18 19 19 19 20 21 21 22 22 23
21 20 20 20 20 19 19 18 18 18 18 18 18 18 18 19 19 20 20 21 22 22 22 21 21 21 21 21 21 21 21 21 20 20 21 21 21 22 22 23 23 24 24
22 22 22 22 22 21 21 21 20 20 19 19 19 20 20 20 21 21 21 22 23 23 23 23 23 23 23 23 23 22 22 22 22 22 22 22 22 23 23 24 24 25 25
24 24 24 23 22 23 23 23 22 21 21 22 21 21 21 21 22 22 22 23 24 24 24 25 25 24 23 24 24 23 23 22 23 23 22 23 23 24 24 24 25 25 25
26 26 25 24 24 24 24 24 24 24 24 23 23 23 23 23 24 24 25 25 26 25 26 27 27 26 25 25 25 25 24 23 23 24 23 23 24 24 24 25 25 25 26
28 28 27 26 26 25 25 25 25 26 26 25 26 26 26 27 27 27 27 28 28 27 27 27 27 27 26 26 26 26 25 25 25 24 24 24 24 24 25 26 26 26 26
30 31 30 29 28 28 28 28 28 28 27 27 28 28 29 29 30 30 30 30 31 30 29 29 28 28 28 28 28 27 27 27 27 26 26 26 27 27 27 27 27 28 28
32 31 32 32 30 30 30 30 30 30 30 30 30 30 31 31 32 32 32 32 31 31 31 30 30 29 29 29 29 29 29 28 28 28 28 28 29 29 28 28 28 28 28
33 33 32 32 32 32 32 32 32 33 33 33 33 33 33 33 33 33 33 32 32 32 32 31 30 30 30 30 30 30 30 30 29 29 29 29 29 29 29 29 29 29 29
34 34 34 34 33 34 34 34 35 35 35 35 35 34 34 34 34 34 34 34 33 33 33 32 31 30 31 31 30 31 31 30 30 30 29 30 31 31 31 30 30 29 29
Wind_Direction
34 35 37 39 43 48 50 50 52 53 55 56 55 54 52 49 53 58 61 59 52 46 51 46 23 246 239 253 261 259 256 257 260 266 266 269 273 275 277 280 278 276 278
31 33 36 37 40 44 46 48 50 52 53 53 53 51 50 48 50 51 54 55 49 44 41 44 38 21 274 267 281 276 264 264 267 270 270 274 277 277 278 278 279 280 279
27 28 33 35 38 41 44 47 49 51 50 50 52 52 49 48 48 48 46 44 43 33 26 22 12 349 313 286 281 284 283 279 275 276 275 275 279 279 281 281 283 285 284
22 24 29 33 36 40 44 47 47 47 45 46 48 50 49 48 46 44 42 39 31 24 15 360 347 333 315 301 289 284 288 289 285 280 277 276 277 280 283 283 285 285 286
19 21 24 28 32 36 41 44 44 43 44 45 44 43 42 39 37 34 30 23 22 14 3 350 338 329 317 304 294 285 285 287 289 287 283 282 279 278 279 282 285 286 287
17 16 18 23 28 32 37 40 40 41 44 43 41 39 36 34 32 26 19 14 10 2 351 343 336 328 317 303 292 288 284 285 287 287 286 283 283 282 283 284 283 284 285
11 12 13 16 21 27 31 33 33 35 36 37 36 33 31 29 28 23 16 10 4 359 351 344 333 323 316 305 295 289 288 286 283 285 285 285 284 284 284 286 288 285 286
4 6 8 11 14 19 23 25 27 28 28 28 29 28 25 24 24 21 16 11 4 358 354 350 343 327 318 310 300 294 290 290 287 284 285 287 288 285 283 285 289 291 291
354 355 355 357 4 8 12 15 19 20 21 20 20 20 19 20 19 16 13 8 2 357 352 346 342 335 326 318 308 302 296 294 293 288 286 288 289 289 286 286 288 290 290
341 343 345 345 351 358 2 3 3 6 10 12 13 15 12 10 8 6 4 2 358 356 351 345 339 332 327 322 314 308 301 297 293 291 290 289 286 286 286 288 289 291 291
328 335 336 337 341 347 351 354 355 0 2 1 2 3 3 0 358 356 354 354 353 351 349 344 338 332 328 321 314 308 303 299 297 295 294 294 290 287 287 288 290 290 290
312 322 328 330 332 337 341 342 341 343 344 347 347 348 350 352 349 346 346 345 346 346 345 340 335 332 328 322 316 311 307 304 301 300 296 295 295 291 291 292 292 292 291
298 306 314 318 320 323 326 329 333 333 331 331 333 334 336 342 345 343 341 342 341 339 339 339 336 332 329 325 319 313 310 306 303 301 299 297 296 295 294 294 293 293 293
289 293 299 306 310 314 317 318 322 323 325 325 328 329 332 335 337 338 338 338 338 334 334 336 333 328 325 324 320 316 310 308 306 302 300 298 296 295 295 294 293 293 293
280 282 286 292 298 305 309 310 312 315 318 319 321 322 326 329 332 333 334 335 337 336 335 334 333 329 325 323 321 317 312 309 306 303 302 300 297 296 295 294 293 292 292
270 274 278 281 288 293 298 300 304 308 311 313 317 316 317 321 325 327 328 328 330 331 332 331 330 328 325 321 320 317 314 310 307 304 302 300 298 297 296 295 294 293 294
262 267 270 274 281 285 290 292 295 301 305 307 310 312 312 315 317 319 321 322 323 325 325 325 326 326 324 320 316 315 313 311 307 304 301 299 298 297 297 296 296 296 295
260 262 266 270 274 279 283 287 291 294 297 300 303 307 309 310 311 312 314 317 318 319 320 320 321 320 320 319 315 312 311 309 307 305 301 298 297 297 296 296 296 296 297
257 260 263 266 269 273 278 282 286 288 290 293 298 303 305 306 306 307 308 312 315 317 316 316 317 316 315 316 313 308 307 307 306 305 303 300 298 298 298 297 296 295 296
254 257 261 264 267 270 274 278 281 284 286 290 294 299 301 304 305 303 304 306 310 313 314 313 313 315 315 315 315 311 307 306 305 304 303 302 299 299 298 297 298 297 297
251 254 259 263 266 269 272 274 277 281 285 286 289 293 297 300 301 302 303 304 307 309 309 310 310 311 312 313 314 312 308 304 303 303 301 300 299 298 298 298 298 299 299
253 255 257 260 265 268 270 273 276 279 282 283 286 289 292 295 298 300 300 301 303 304 305 308 309 309 309 310 312 312 308 305 304 303 301 301 300 298 299 300 299 298 298
254 256 257 258 261 265 268 270 273 277 279 281 284 287 289 292 294 296 297 299 301 301 300 303 305 306 306 307 308 309 309 306 304 302 301 301 300 300 298 298 298 298 298
255 256 256 257 259 263 265 268 272 278 281 282 283 285 288 290 291 292 294 295 297 299 298 298 301 302 303 304 305 305 306 306 305 304 303 302 301 300 299 299 299 298 298
255 255 255 256 258 260 264 268 273 276 279 280 282 284 287 289 291 292 291 292 294 296 296 296 297 299 301 302 303 304 303 302 303 303 302 300 300 299 299 298 297 297 297
253 254 255 255 258 260 264 269 273 275 276 278 281 284 287 289 289 289 289 291 291 292 293 294 296 298 300 302 303 303 303 301 301 301 300 299 299 298 298 298 297 297 296
Height
5922 5919 5917 5915 5913 5911 5909 5908 5906 5905 5903 5902 5901 5900 5899 5898 5897 5896 5895 5895 5895 5894 5894 5894 5894 5894 5894 5894 5894 5894 5893 5893 5893 5894 5893 5893 5893 5892 5892 5891 5891 5890 5890
5924 5922 5919 5917 5915 5913 5911 5910 5908 5907 5905 5904 5902 5901 5900 5899 5898 5897 5897 5896 5896 5895 5894 5894 5894 5893 5893 5893 5893 5893 5892 5892 5892 5892 5892 5891 5892 5890 5890 5890 5889 5888 5888
5926 5924 5921 5919 5917 5915 5913 5912 5910 5908 5907 5905 5904 5903 5901 5900 5899 5899 5898 5897 5896 5895 5895 5894 5893 5893 5893 5892 5892 5891 5891 5891 5890 5890 5890 5890 5889 5888 5888 5887 5887 5886 5885
5927 5925 5923 5921 5919 5917 5915 5913 5912 5910 5909 5907 5906 5904 5903 5902 5901 5900 5899 5898 5897 5896 5895 5894 5893 5893 5892 5891 5891 5890 5890 5889 5889 5888 5888 5887 5887 5886 5886 5885 5884 5883 5883
5929 5927 5925 5923 5921 5919 5917 5915 5914 5912 5911 5909 5907 5906 5904 5903 5902 5900 5900 5898 5897 5896 5895 5893 5892 5891 5891 5890 5889 5889 5888 5887 5887 5886 5885 5885 5884 5883 5883 5882 5881 5880 5880
5930 5928 5926 5924 5922 5920 5918 5917 5915 5914 5912 5910 5909 5907 5905 5904 5902 5901 5900 5898 5897 5895 5894 5892 5891 5890 5889 5888 5887 5886 5886 5885 5884 5883 5883 5882 5881 5880 5880 5879 5878 5877 5876
5930 5929 5927 5925 5923 5921 5920 5918 5917 5915 5913 5912 5910 5908 5906 5905 5903 5901 5900 5898 5896 5895 5893 5891 5890 5888 5887 5886 5885 5884 5884 5883 5882 5881 5880 5879 5878 5877 5876 5875 5874 5873 5872
5930 5929 5927 5926 5924 5922 5921 5919 5917 5916 5914 5913 5911 5909 5908 5906 5904 5902 5900 5898 5896 5894 5892 5890 5888 5887 5886 5884 5883 5882 5881 5880 5880 5879 5878 5877 5875 5874 5873 5873 5872 5870 5869
5930 5929 5928 5926 5924 5922 5921 5919 5918 5916 5915 5913 5911 5910 5908 5906 5904 5902 5900 5898 5896 5893 5891 5889 5887 5886 5884 5883 5881 5880 5879 5878 5877 5876 5875 5873 5872 5871 5870 5869 5868 5867 5866
5930 5929 5927 5926 5924 5922 5921 5919 5918 5916 5915 5913 5911 5910 5908 5906 5904 5902 5900 5897 5895 5893 5890 5888 5886 5884 5882 5881 5879 5878 5876 5875 5874 5872 5871 5870 5869 5868 5867 5866 5864 5863 5862
5929 5928 5927 5925 5924 5922 5920 5919 5917 5916 5915 5913 5911 5910 5908 5906 5904 5902 5899 5897 5894 5892 5889 5887 5884 5882 5880 5878 5876 5875 5873 5872 5870 5869 5868 5866 5865 5864 5863 5861 5860 5859 5858
5928 5927 5926 5924 5923 5921 5920 5918 5917 5915 5914 5912 5911 5909 5907 5905 5903 5900 5898 5895 5893 5890 5887 5885 5882 5880 5878 5875 5874 5872 5870 5868 5867 5865 5864 5863 5861 5860 5859 5857 5856 5854 5853
5926 5925 5924 5923 5922 5921 5919 5917 5916 5914 5913 5911 5909 5908 5906 5904 5902 5899 5897 5893 5890 5888 5885 5882 5880 5877 5875 5872 5870 5869 5867 5865 5863 5862 5860 5859 5858 5856 5855 5853 5851 5850 5848
5924 5923 5923 5922 5921 5919 5918 5917 5915 5913 5912 5910 5908 5906 5905 5903 5900 5898 5895 5892 5889 5886 5883 5880 5878 5875 5872 5870 5868 5866 5864 5862 5860 5858 5856 5855 5853 5852 5850 5848 5847 5845 5843
5922 5921 5920 5920 5919 5918 5917 5915 5914 5912 5910 5909 5907 5905 5903 5901 5899 5896 5893 5890 5887 5884 5881 5878 5876 5873 5870 5867 5865 5863 5860 5858 5856 5855 5853 5851 5849 5847 5845 5844 5842 5840 5838
5918 5918 5917 5917 5916 5915 5914 5913 5912 5910 5908 5907 5905 5902 5900 5898 5896 5894 5891 5888 5885 5882 5879 5876 5873 5870 5867 5864 5862 5859 5857 5854 5852 5850 5848 5846 5844 5843 5841 5839 5837 5835 5833
5913 5913 5913 5913 5913 5912 5911 5910 5909 5907 5906 5904 5902 5900 5898 5895 5893 5891 5888 5886 5883 5879 5876 5873 5870 5867 5864 5861 5858 5856 5853 5850 5848 5846 5844 5842 5840 5838 5836 5833 5831 5829 5827
5908 5908 5908 5908 5908 5907 5907 5906 5905 5904 5902 5900 5899 5897 5895 5892 5890 5887 5885 5882 5879 5876 5873 5869 5866 5863 5860 5857 5854 5851 5848 5845 5843 5841 5838 5836 5834 5832 5829 5827 5825 5823 5820
5902 5902 5902 5902 5902 5902 5902 5901 5900 5899 5897 5896 5894 5893 5890 5888 5885 5883 5881 5878 5875 5872 5868 5865 5862 5859 5856 5852 5848 5845 5842 5840 5837 5835 5832 5830 5828 5825 5823 5821 5818 5816 5814
5895 5896 5896 5896 5896 5896 5896 5895 5895 5894 5892 5891 5890 5888 5886 5883 5880 5878 5876 5873 5870 5867 5864 5861 5858 5854 5851 5847 5842 5838 5836 5834 5831 5829 5826 5824 5821 5819 5816 5814 5812 5809 5806
5888 5889 5889 5890 5890 5890 5890 5889 5889 5888 5887 5885 5885 5883 5881 5879 5876 5874 5871 5868 5865 5862 5859 5856 5852 5849 5845 5841 5838 5834 5831 5828 5825 5822 5819 5817 5815 5812 5810 5807 5805 5802 5799
5880 5881 5882 5883 5883 5883 5883 5883 5883 5882 5880 5879 5878 5877 5875 5872 5870 5868 5865 5862 5859 5856 5853 5849 5846 5843 5839 5836 5832 5829 5825 5822 5819 5816 5813 5810 5808 5805 5803 5800 5797 5795 5792
5872 5873 5874 5875 5876 5876 5876 5876 5875 5874 5873 5872 5871 5869 5867 5865 5863 5860 5858 5855 5852 5849 5846 5843 5840 5837 5833 5830 5826 5823 5819 5816 5813 5810 5807 5804 5801 5799 5796 5793 5790 5787 5784
5864 5865 5866 5867 5868 5868 5868 5868 5868 5867 5866 5865 5864 5862 5860 5857 5855 5852 5850 5847 5844 5841 5838 5835 5832 5829 5826 5823 5819 5816 5813 5809 5806 5803 5800 5797 5794 5791 5788 5785 5782 5779 5776
5855 5856 5857 5859 5860 5860 5860 5860 5860 5859 5858 5857 5855 5853 5851 5848 5846 5844 5842 5839 5836 5833 5831 5828 5825 5822 5819 5815 5812 5808 5805 5802 5799 5795 5792 5789 5786 5783 5780 5777 5774 5771 5768
5845 5847 5848 5849 5851 5851 5851 5851 5851 5850 5849 5848 5846 5844 5842 5840 5837 5835 5833 5830 5828 5825 5822 5819 5817 5814 5811 5808 5804 5801 5797 5794 5791 5787 5784 5781 5778 5775 5772 5769 5766 5763 5760